LNR032 LFMD-LFLI

Flight info

Callsign LNR032
Flight time 1h 11m
Altitude 16000
Route IRMAR DCT VANAS DCT SUVEL
Aircraft C208/L-SBDFGR/S

Departure

Time 2026-04-26 05:43
Airport Cannes Mandelieu Airport (LFMD)

Arrival

Time 2026-04-26 06:55
Airport Annemasse Airfield (LFLI)
Time Latitude Longitude Altitude Speed Heading
2026-04-26 05:28 43.54613 6.95378 20 ft 0 kts 173°
2026-04-26 05:36 43.54612 6.95378 20 ft 1 kts 172°
2026-04-26 05:37 43.54588 6.95380 20 ft 2 kts 207°
2026-04-26 05:37 43.54585 6.95363 20 ft 4 kts 262°
2026-04-26 05:37 43.54580 6.95322 21 ft 4 kts 261°
2026-04-26 05:37 43.54580 6.95320 21 ft 0 kts 261°
2026-04-26 05:39 43.54580 6.95317 21 ft 0 kts 261°
2026-04-26 05:39 43.54577 6.95299 21 ft 4 kts 237°
2026-04-26 05:39 43.54533 6.95302 22 ft 9 kts 172°
2026-04-26 05:39 43.54450 6.95317 23 ft 14 kts 172°
2026-04-26 05:40 43.54360 6.95334 26 ft 14 kts 168°
2026-04-26 05:40 43.54238 6.95357 22 ft 21 kts 171°
2026-04-26 05:40 43.54089 6.95380 19 ft 19 kts 174°
2026-04-26 05:40 43.54023 6.95342 19 ft 7 kts 262°
2026-04-26 05:41 43.54020 6.95307 20 ft 0 kts 267°
2026-04-26 05:41 43.54019 6.95278 20 ft 7 kts 265°
2026-04-26 05:41 43.54042 6.95221 21 ft 9 kts 354°
2026-04-26 05:42 43.54187 6.95198 24 ft 41 kts 352°
2026-04-26 05:42 43.54593 6.95125 23 ft 75 kts 353°
2026-04-26 05:42 43.55132 6.95021 141 ft 78 kts 351°
2026-04-26 05:42 43.55671 6.94873 240 ft 85 kts 346°
2026-04-26 05:43 43.56279 6.94684 390 ft 91 kts 347°
2026-04-26 05:43 43.56896 6.94475 608 ft 90 kts 346°
2026-04-26 05:43 43.57500 6.94351 869 ft 80 kts 358°
2026-04-26 05:43 43.57992 6.94333 1092 ft 70 kts 13°
2026-04-26 05:44 43.58414 6.94719 1204 ft 74 kts 50°
2026-04-26 05:44 43.58561 6.95147 1266 ft 79 kts 75°
2026-04-26 05:44 43.58365 6.96098 1505 ft 81 kts 123°
2026-04-26 05:44 43.57821 6.96461 1570 ft 102 kts 178°
2026-04-26 05:45 43.57094 6.96227 1747 ft 109 kts 200°
2026-04-26 05:45 43.56450 6.95666 1990 ft 111 kts 223°
2026-04-26 05:45 43.56126 6.95104 2151 ft 111 kts 239°
2026-04-26 05:45 43.55812 6.94160 2433 ft 107 kts 248°
2026-04-26 05:46 43.55685 6.93165 2641 ft 109 kts 292°
2026-04-26 05:46 43.56191 6.92424 2873 ft 109 kts 329°
2026-04-26 05:46 43.56929 6.92242 3111 ft 111 kts
2026-04-26 05:46 43.57701 6.92238 3348 ft 112 kts 357°
2026-04-26 05:47 43.58486 6.92208 3578 ft 113 kts 357°
2026-04-26 05:47 43.59276 6.92172 3806 ft 114 kts 357°
2026-04-26 05:47 43.60084 6.92131 4038 ft 115 kts 356°
2026-04-26 05:47 43.60888 6.92088 4266 ft 116 kts 356°
2026-04-26 05:48 43.61702 6.92043 4498 ft 118 kts 355°
2026-04-26 05:48 43.62526 6.91997 4730 ft 118 kts 358°
2026-04-26 05:48 43.63352 6.91948 4959 ft 120 kts 358°
2026-04-26 05:48 43.64190 6.91905 5180 ft 121 kts 358°
2026-04-26 05:49 43.65039 6.91856 5404 ft 123 kts 358°
2026-04-26 05:49 43.66767 6.91754 5859 ft 126 kts 358°
2026-04-26 05:49 43.67644 6.91709 6086 ft 126 kts 358°
2026-04-26 05:50 43.68510 6.91658 6310 ft 126 kts 358°
2026-04-26 05:50 43.69388 6.91608 6534 ft 127 kts 359°
2026-04-26 05:50 43.70273 6.91558 6748 ft 127 kts 359°
2026-04-26 05:50 43.71156 6.91508 6963 ft 127 kts 358°
2026-04-26 05:51 43.72039 6.91456 7182 ft 127 kts 358°
2026-04-26 05:51 43.72923 6.91406 7399 ft 127 kts 358°
2026-04-26 05:51 43.73805 6.91355 7620 ft 127 kts 358°
2026-04-26 05:51 43.74687 6.91305 7838 ft 127 kts 358°
2026-04-26 05:52 43.75567 6.91255 8053 ft 126 kts 358°
2026-04-26 05:52 43.76445 6.91204 8275 ft 126 kts 358°
2026-04-26 05:52 43.77321 6.91153 8498 ft 126 kts 358°
2026-04-26 05:52 43.78193 6.91104 8730 ft 124 kts 358°
2026-04-26 05:53 43.79058 6.91054 8932 ft 127 kts 358°
2026-04-26 05:53 43.79940 6.91003 9144 ft 126 kts 358°
2026-04-26 05:53 43.80819 6.90953 9360 ft 127 kts 358°
2026-04-26 05:53 43.81700 6.90903 9561 ft 127 kts 358°
2026-04-26 05:54 43.82583 6.90852 9768 ft 128 kts 357°
2026-04-26 05:54 43.83473 6.90801 9980 ft 128 kts 357°
2026-04-26 05:54 43.84351 6.90750 10176 ft 128 kts 357°
2026-04-26 05:54 43.85255 6.90699 10375 ft 128 kts 357°
2026-04-26 05:55 43.86148 6.90647 10563 ft 129 kts 357°
2026-04-26 05:55 43.87044 6.90596 10752 ft 129 kts 358°
2026-04-26 05:55 43.87929 6.90545 10934 ft 129 kts 358°
2026-04-26 05:55 43.88827 6.90494 11108 ft 129 kts 358°
2026-04-26 05:56 43.89726 6.90443 11283 ft 129 kts 358°
2026-04-26 05:56 43.90628 6.90392 11461 ft 130 kts 358°
2026-04-26 05:56 43.91530 6.90339 11636 ft 130 kts 358°
2026-04-26 05:56 43.92431 6.90288 11798 ft 130 kts 358°
2026-04-26 05:57 43.93334 6.90235 11972 ft 130 kts 358°
2026-04-26 05:57 43.94240 6.90183 12149 ft 130 kts 358°
2026-04-26 05:57 43.95145 6.90131 12332 ft 130 kts 358°
2026-04-26 05:57 43.96052 6.90079 12501 ft 130 kts 358°
2026-04-26 05:58 43.96959 6.90026 12663 ft 131 kts 358°
2026-04-26 05:58 43.97868 6.89974 12802 ft 131 kts 358°
2026-04-26 05:58 43.98778 6.89919 12947 ft 131 kts 358°
2026-04-26 05:58 43.99690 6.89869 13123 ft 131 kts 358°
2026-04-26 05:59 44.00603 6.89817 13294 ft 131 kts 358°
2026-04-26 05:59 44.01516 6.89764 13456 ft 131 kts 358°
2026-04-26 05:59 44.02430 6.89711 13617 ft 131 kts 358°
2026-04-26 05:59 44.03341 6.89659 13766 ft 131 kts 358°
2026-04-26 06:00 44.04254 6.89605 13942 ft 131 kts 358°
2026-04-26 06:00 44.05168 6.89552 14087 ft 131 kts 358°
2026-04-26 06:00 44.06079 6.89502 14224 ft 131 kts 358°
2026-04-26 06:00 44.06999 6.89447 14350 ft 133 kts 358°
2026-04-26 06:01 44.07922 6.89393 14507 ft 133 kts 358°
2026-04-26 06:01 44.08850 6.89339 14659 ft 134 kts 358°
2026-04-26 06:01 44.09780 6.89285 14807 ft 134 kts 358°
2026-04-26 06:01 44.10713 6.89231 14968 ft 134 kts 358°
2026-04-26 06:02 44.11647 6.89178 15111 ft 135 kts 357°
2026-04-26 06:02 44.12574 6.89122 15236 ft 135 kts 358°
2026-04-26 06:02 44.13529 6.89067 15381 ft 135 kts 358°
2026-04-26 06:02 44.14458 6.89007 15512 ft 136 kts 354°
2026-04-26 06:03 44.15398 6.88849 15642 ft 136 kts 354°
2026-04-26 06:03 44.16343 6.88715 15773 ft 137 kts 354°
2026-04-26 06:03 44.17291 6.88577 15908 ft 137 kts 353°
2026-04-26 06:03 44.18241 6.88435 16055 ft 139 kts 353°
2026-04-26 06:04 44.19236 6.88284 16073 ft 150 kts 353°
2026-04-26 06:04 44.20306 6.88124 16069 ft 158 kts 353°
2026-04-26 06:04 44.21421 6.87956 16072 ft 165 kts 353°
2026-04-26 06:04 44.22586 6.87782 16071 ft 171 kts 353°
2026-04-26 06:05 44.23784 6.87602 16072 ft 174 kts 353°
2026-04-26 06:05 44.24993 6.87421 16070 ft 175 kts 354°
2026-04-26 06:05 44.26209 6.87239 16063 ft 177 kts 354°
2026-04-26 06:05 44.27439 6.87053 16065 ft 178 kts 353°
2026-04-26 06:06 44.28656 6.86868 16069 ft 178 kts 353°
2026-04-26 06:06 44.29888 6.86681 16063 ft 178 kts 353°
2026-04-26 06:06 44.31116 6.86494 16067 ft 179 kts 353°
2026-04-26 06:06 44.32352 6.86308 16065 ft 178 kts 354°
2026-04-26 06:07 44.33585 6.86123 16065 ft 178 kts 353°
2026-04-26 06:07 44.34832 6.85933 16063 ft 178 kts 353°
2026-04-26 06:07 44.36047 6.85749 16063 ft 177 kts 353°
2026-04-26 06:07 44.37262 6.85564 16061 ft 177 kts 353°
2026-04-26 06:08 44.38491 6.85377 16065 ft 177 kts 353°
2026-04-26 06:08 44.39713 6.85191 16061 ft 176 kts 353°
2026-04-26 06:08 44.40928 6.85006 16064 ft 176 kts 353°
2026-04-26 06:08 44.42146 6.84824 16070 ft 176 kts 353°
2026-04-26 06:09 44.43370 6.84636 16070 ft 177 kts 353°
2026-04-26 06:09 44.44611 6.84448 16069 ft 177 kts 353°
2026-04-26 06:09 44.45837 6.84262 16073 ft 177 kts 353°
2026-04-26 06:09 44.47043 6.84078 16069 ft 177 kts 353°
2026-04-26 06:10 44.48280 6.83890 16073 ft 177 kts 354°
2026-04-26 06:10 44.49507 6.83703 16076 ft 178 kts 354°
2026-04-26 06:10 44.50726 6.83517 16075 ft 179 kts 354°
2026-04-26 06:10 44.51977 6.83326 16074 ft 178 kts 353°
2026-04-26 06:11 44.53196 6.83141 16073 ft 178 kts 353°
2026-04-26 06:11 44.54446 6.82950 16075 ft 179 kts 354°
2026-04-26 06:11 44.55667 6.82764 16073 ft 179 kts 354°
2026-04-26 06:11 44.56914 6.82574 16080 ft 180 kts 353°
2026-04-26 06:12 44.58159 6.82383 16080 ft 180 kts 354°
2026-04-26 06:12 44.59418 6.82190 16080 ft 180 kts 354°
2026-04-26 06:12 44.60665 6.82001 16081 ft 180 kts 354°
2026-04-26 06:12 44.61895 6.81812 16081 ft 181 kts 353°
2026-04-26 06:13 44.63148 6.81619 16076 ft 181 kts 353°
2026-04-26 06:13 44.64397 6.81429 16078 ft 180 kts 354°
2026-04-26 06:13 44.65644 6.81240 16078 ft 180 kts 353°
2026-04-26 06:13 44.66891 6.81049 16079 ft 180 kts 353°
2026-04-26 06:14 44.68139 6.80857 16081 ft 180 kts 353°
2026-04-26 06:14 44.69385 6.80664 16082 ft 180 kts 354°
2026-04-26 06:14 44.70631 6.80473 16081 ft 180 kts 353°
2026-04-26 06:14 44.71875 6.80282 16081 ft 180 kts 354°
2026-04-26 06:15 44.73122 6.80092 16078 ft 180 kts 354°
2026-04-26 06:15 44.74368 6.79898 16079 ft 180 kts 353°
2026-04-26 06:15 44.75617 6.79707 16080 ft 180 kts 354°
2026-04-26 06:15 44.76865 6.79515 16076 ft 180 kts 354°
2026-04-26 06:16 44.78107 6.79324 16079 ft 179 kts 354°
2026-04-26 06:16 44.79334 6.79135 16080 ft 180 kts 354°
2026-04-26 06:16 44.80582 6.78996 16080 ft 180 kts 358°
2026-04-26 06:16 44.81836 6.78924 16079 ft 179 kts 356°
2026-04-26 06:17 44.83086 6.78827 16080 ft 180 kts 357°
2026-04-26 06:17 44.84336 6.78751 16081 ft 180 kts 357°
2026-04-26 06:17 44.85592 6.78666 16080 ft 180 kts 357°
2026-04-26 06:17 44.86844 6.78584 16078 ft 180 kts 357°
2026-04-26 06:18 44.88091 6.78502 16078 ft 179 kts 357°
2026-04-26 06:18 44.89348 6.78418 16077 ft 178 kts 357°
2026-04-26 06:18 44.90587 6.78338 16074 ft 178 kts 357°
2026-04-26 06:18 44.91805 6.78256 16078 ft 177 kts 357°
2026-04-26 06:19 44.93042 6.78176 16078 ft 178 kts 357°
2026-04-26 06:19 44.94278 6.78092 16079 ft 178 kts 357°
2026-04-26 06:19 44.95519 6.78011 16079 ft 178 kts 357°
2026-04-26 06:19 44.96750 6.77930 16079 ft 177 kts 357°
2026-04-26 06:20 44.97982 6.77849 16080 ft 177 kts 357°
2026-04-26 06:20 44.99216 6.77768 16086 ft 177 kts 357°
2026-04-26 06:20 45.00444 6.77686 16086 ft 177 kts 356°
2026-04-26 06:20 45.01676 6.77606 16085 ft 177 kts 356°
2026-04-26 06:21 45.02908 6.77524 16084 ft 178 kts 356°
2026-04-26 06:21 45.04148 6.77444 16085 ft 178 kts 356°
2026-04-26 06:21 45.05384 6.77361 16084 ft 178 kts 356°
2026-04-26 06:21 45.06618 6.77278 16081 ft 177 kts 356°
2026-04-26 06:22 45.07850 6.77197 16081 ft 177 kts 356°
2026-04-26 06:22 45.09079 6.77116 16081 ft 177 kts 356°
2026-04-26 06:22 45.10252 6.77038 16081 ft 177 kts 356°
2026-04-26 06:22 45.11482 6.76957 16082 ft 177 kts 357°
2026-04-26 06:23 45.12714 6.76875 16078 ft 177 kts 356°
2026-04-26 06:23 45.13946 6.76793 16090 ft 177 kts 357°
2026-04-26 06:23 45.15179 6.76712 16090 ft 178 kts 357°
2026-04-26 06:23 45.16416 6.76629 16090 ft 178 kts 356°
2026-04-26 06:24 45.17651 6.76547 16091 ft 178 kts 356°
2026-04-26 06:24 45.18867 6.76467 16094 ft 177 kts 357°
2026-04-26 06:24 45.20104 6.76384 16097 ft 178 kts 356°
2026-04-26 06:24 45.21338 6.76301 16098 ft 178 kts 356°
2026-04-26 06:25 45.22574 6.76219 16095 ft 177 kts 356°
2026-04-26 06:25 45.23805 6.76138 16095 ft 177 kts 356°
2026-04-26 06:25 45.25032 6.76056 16090 ft 176 kts 356°
2026-04-26 06:25 45.26251 6.75976 16091 ft 175 kts 356°
2026-04-26 06:26 45.27469 6.75894 16091 ft 175 kts 357°
2026-04-26 06:26 45.28689 6.75810 16091 ft 175 kts 356°
2026-04-26 06:26 45.29914 6.75723 16089 ft 177 kts 356°
2026-04-26 06:26 45.30730 6.75675 16089 ft 177 kts 357°
2026-04-26 06:27 45.32369 6.75569 16088 ft 175 kts 356°
2026-04-26 06:27 45.33170 6.75515 16094 ft 174 kts 356°
2026-04-26 06:27 45.34775 6.75407 16097 ft 175 kts 356°
2026-04-26 06:27 45.35598 6.75352 16097 ft 176 kts 356°
2026-04-26 06:28 45.36821 6.75269 16098 ft 176 kts 356°
2026-04-26 06:28 45.38449 6.75161 16098 ft 177 kts 356°
2026-04-26 06:28 45.39280 6.75105 16101 ft 177 kts 356°
2026-04-26 06:28 45.40512 6.75020 16050 ft 180 kts 356°
2026-04-26 06:29 45.41783 6.74937 15937 ft 185 kts 356°
2026-04-26 06:29 45.43084 6.74851 15820 ft 189 kts 356°
2026-04-26 06:29 45.44413 6.74761 15707 ft 193 kts 356°
2026-04-26 06:29 45.46182 6.74436 15551 ft 195 kts 339°
2026-04-26 06:30 45.47009 6.73945 15474 ft 194 kts 337°
2026-04-26 06:30 45.48267 6.73226 15353 ft 195 kts 339°
2026-04-26 06:30 45.49531 6.72527 15239 ft 196 kts 339°
2026-04-26 06:30 45.50806 6.71812 15123 ft 197 kts 338°
2026-04-26 06:31 45.52088 6.71086 14954 ft 200 kts 338°
2026-04-26 06:31 45.53394 6.70350 14775 ft 203 kts 339°
2026-04-26 06:31 45.54703 6.69609 14583 ft 201 kts 338°
2026-04-26 06:31 45.55980 6.68883 14390 ft 196 kts 339°
2026-04-26 06:32 45.57248 6.68168 14197 ft 196 kts 339°
2026-04-26 06:32 45.58517 6.67452 14015 ft 197 kts 339°
2026-04-26 06:32 45.59795 6.66732 13811 ft 198 kts 339°
2026-04-26 06:32 45.61079 6.66005 13608 ft 199 kts 339°
2026-04-26 06:33 45.62370 6.65273 13394 ft 200 kts 339°
2026-04-26 06:33 45.63664 6.64541 13185 ft 200 kts 339°
2026-04-26 06:33 45.64952 6.63786 12983 ft 200 kts 338°
2026-04-26 06:33 45.66234 6.63007 12776 ft 200 kts 338°
2026-04-26 06:34 45.67516 6.62226 12574 ft 199 kts 337°
2026-04-26 06:34 45.68788 6.61449 12371 ft 198 kts 337°
2026-04-26 06:34 45.70049 6.60680 12166 ft 196 kts 337°
2026-04-26 06:34 45.71291 6.59917 11960 ft 192 kts 337°
2026-04-26 06:35 45.72437 6.58966 11763 ft 190 kts 326°
2026-04-26 06:35 45.73524 6.57898 11558 ft 189 kts 326°
2026-04-26 06:35 45.74602 6.56836 11356 ft 187 kts 326°
2026-04-26 06:35 45.75670 6.55779 11156 ft 186 kts 326°
2026-04-26 06:36 45.76745 6.54762 10966 ft 186 kts 329°
2026-04-26 06:36 45.77826 6.53809 10774 ft 184 kts 329°
2026-04-26 06:36 45.78905 6.52852 10581 ft 182 kts 329°
2026-04-26 06:36 45.79984 6.51895 10390 ft 182 kts 329°
2026-04-26 06:37 45.81062 6.50940 10202 ft 181 kts 329°
2026-04-26 06:37 45.82129 6.49990 10011 ft 180 kts 329°
2026-04-26 06:37 45.83188 6.49050 9807 ft 179 kts 329°
2026-04-26 06:37 45.84252 6.48103 9594 ft 180 kts 329°
2026-04-26 06:38 45.85313 6.47164 9380 ft 179 kts 329°
2026-04-26 06:38 45.86391 6.46267 9178 ft 180 kts 333°
2026-04-26 06:38 45.87504 6.45427 8973 ft 180 kts 333°
2026-04-26 06:38 45.88608 6.44603 8767 ft 178 kts 334°
2026-04-26 06:39 45.89734 6.43845 8528 ft 180 kts 336°
2026-04-26 06:39 45.90876 6.43093 8287 ft 182 kts 336°
2026-04-26 06:39 45.92028 6.42335 8037 ft 182 kts 336°
2026-04-26 06:39 45.93189 6.41588 7782 ft 182 kts 339°
2026-04-26 06:40 45.94367 6.40986 7539 ft 183 kts 343°
2026-04-26 06:40 45.95603 6.40478 7304 ft 182 kts 348°
2026-04-26 06:40 45.96844 6.40165 7057 ft 181 kts 351°
2026-04-26 06:40 45.98077 6.39879 6817 ft 181 kts 351°
2026-04-26 06:41 45.99317 6.39591 6577 ft 180 kts 351°
2026-04-26 06:41 46.00546 6.39292 6329 ft 179 kts 351°
2026-04-26 06:41 46.01777 6.38997 6074 ft 179 kts 351°
2026-04-26 06:41 46.03018 6.38703 5813 ft 182 kts 351°
2026-04-26 06:42 46.04192 6.38206 5525 ft 167 kts 334°
2026-04-26 06:42 46.05156 6.37403 5231 ft 156 kts 330°
2026-04-26 06:42 46.06082 6.36622 4938 ft 153 kts 330°
2026-04-26 06:42 46.06997 6.35845 4645 ft 152 kts 330°
2026-04-26 06:43 46.07896 6.35056 4359 ft 153 kts 330°
2026-04-26 06:43 46.08825 6.34191 4105 ft 167 kts 330°
2026-04-26 06:43 46.09845 6.33254 3860 ft 178 kts 330°
2026-04-26 06:43 46.10896 6.32294 3607 ft 179 kts 330°
2026-04-26 06:44 46.11949 6.31323 3350 ft 180 kts 330°
2026-04-26 06:44 46.13022 6.30412 3083 ft 178 kts 333°
2026-04-26 06:44 46.14087 6.29550 3010 ft 170 kts 333°
2026-04-26 06:44 46.15096 6.28779 2995 ft 152 kts 340°
2026-04-26 06:45 46.16013 6.28292 3001 ft 131 kts 345°
2026-04-26 06:45 46.16850 6.27936 3001 ft 123 kts 346°
2026-04-26 06:45 46.17661 6.27586 3006 ft 121 kts 346°
2026-04-26 06:45 46.18459 6.27239 3007 ft 120 kts 346°
2026-04-26 06:46 46.19263 6.26891 3015 ft 121 kts 346°
2026-04-26 06:46 46.19993 6.26302 3011 ft 127 kts 308°
2026-04-26 06:46 46.20069 6.25053 2995 ft 134 kts 246°
2026-04-26 06:46 46.19413 6.24068 2815 ft 140 kts 213°
2026-04-26 06:47 46.18494 6.23693 2621 ft 139 kts 175°
2026-04-26 06:47 46.17696 6.24285 2518 ft 126 kts 121°
2026-04-26 06:47 46.17292 6.25332 2503 ft 115 kts 122°
2026-04-26 06:47 46.16857 6.26208 2511 ft 101 kts 122°
2026-04-26 06:48 46.16495 6.26980 2499 ft 90 kts 118°
2026-04-26 06:48 46.16293 6.27796 2487 ft 88 kts 81°
2026-04-26 06:48 46.16580 6.28523 2504 ft 86 kts 36°
2026-04-26 06:48 46.17132 6.28868 2563 ft 80 kts 18°
2026-04-26 06:49 46.17654 6.29094 2504 ft 79 kts 13°
2026-04-26 06:49 46.18204 6.28975 2202 ft 89 kts 331°
2026-04-26 06:49 46.18645 6.28362 1899 ft 88 kts 298°
2026-04-26 06:49 46.18920 6.27614 1675 ft 83 kts 295°
2026-04-26 06:50 46.19158 6.26935 1632 ft 66 kts 294°
2026-04-26 06:50 46.19376 6.26330 1679 ft 70 kts 292°
2026-04-26 06:50 46.19590 6.25685 1795 ft 70 kts 293°
2026-04-26 06:50 46.19751 6.25039 1906 ft 70 kts 266°
2026-04-26 06:51 46.19479 6.24476 1979 ft 75 kts 204°
2026-04-26 06:51 46.18467 6.23968 2230 ft 78 kts 192°
2026-04-26 06:51 46.17849 6.23780 2246 ft 104 kts 182°
2026-04-26 06:52 46.17160 6.24112 2457 ft 110 kts 134°
2026-04-26 06:52 46.16764 6.25134 2470 ft 126 kts 110°
2026-04-26 06:52 46.16552 6.26347 2649 ft 123 kts 95°
2026-04-26 06:52 46.16407 6.27588 2599 ft 123 kts 97°
2026-04-26 06:53 46.16308 6.28636 2609 ft 96 kts 86°
2026-04-26 06:53 46.16549 6.29412 2452 ft 84 kts 42°
2026-04-26 06:53 46.17079 6.29747 2321 ft 82 kts 11°
2026-04-26 06:53 46.17636 6.29768 2225 ft 82 kts 341°
2026-04-26 06:54 46.18129 6.29383 2149 ft 81 kts 321°
2026-04-26 06:54 46.18493 6.28752 2010 ft 84 kts 301°
2026-04-26 06:54 46.18775 6.28005 1778 ft 84 kts 295°
2026-04-26 06:54 46.19033 6.27300 1637 ft 70 kts 295°
2026-04-26 06:55 46.19225 6.26753 1630 ft 51 kts 298°
2026-04-26 06:55 46.19343 6.26435 1630 ft 25 kts 297°
2026-04-26 06:55 46.19393 6.26326 1631 ft 6 kts 22°
2026-04-26 06:55 46.19414 6.26340 1631 ft 1 kts 27°
2026-04-26 06:56 46.19415 6.26341 1631 ft 0 kts 27°
2026-04-26 06:56 46.19440 6.26359 1630 ft 9 kts 27°
2026-04-26 06:56 46.19487 6.26401 1630 ft 11 kts 33°
2026-04-26 06:57 46.19525 6.26439 1630 ft 7 kts 75°
2026-04-26 06:57 46.19550 6.26526 1630 ft 11 kts 60°
2026-04-26 06:57 46.19520 6.26580 1630 ft 11 kts 145°
2026-04-26 06:57 46.19453 6.26636 1630 ft 5 kts 123°
2026-04-26 06:58 46.19476 6.26659 1630 ft 5 kts 321°
2026-04-26 06:58 46.19481 6.26642 1630 ft 0 kts 238°